{"data":{"norad_id":44905,"epoch":"2026-05-25T04:28:47.796384Z","epoch_age_seconds":54766,"freshness":"FRESH","line1":"1 44905U 19096A   26145.18666431  .00000026  00000+0  11515-3 0  9993","line2":"2 44905  82.5214  98.8990 0012534 198.8737 161.1880 12.42868994290826","mean_motion":12.42868994,"eccentricity":0.0012534,"inclination_deg":82.5214,"raan_deg":98.899,"arg_perigee_deg":198.8737,"mean_anomaly_deg":161.188,"bstar":0.00011515,"rev_number":29082,"period_min":115.86096418461,"perigee_km":1484.5970451542,"apogee_km":1504.3320827547,"semimajor_km":7872.6015639545,"source":"CELESTRAK","updated_at":"2026-05-25T13:37:56.040913Z"}}